When you browse on this site, cookies collect data to enhance your experience and personalize the content and advertising you see.
Visit our Privacy Policy to learn more. By continuing to use the site, you agree to this use of cookies and data.
  • In Romania
  • List of Countries
  • For 7 days
  • Water Temperature
  • Satellite Maps
  • Weather Map
  • Weather Widgets
  • user-avatar
    Login

    Hourly Weather Maloe Vishene

    Today, 25 April, Thursday

    Time Temperature Precipitation Wind Pressure Humidity
    00:00 +12°C° 0 mm 1 mps 748 mmHg 63%
    01:00 +11°C° 0 mm 1 mps 748 mmHg 65%
    02:00 +9°C° 0 mm 0 mps 747 mmHg 69%
    03:00 +9°C° 0 mm 0 mps 747 mmHg 70%
    04:00 +9°C° 0 mm 0 mps 747 mmHg 71%
    05:00 +9°C° 0 mm 0 mps 747 mmHg 72%
    06:00 +11°C° 0 mm 0 mps 747 mmHg 65%
    07:00 +14°C° 0 mm 0 mps 747 mmHg 58%
    08:00 +16°C° 0 mm 0 mps 747 mmHg 51%
    09:00 +20°C° 0 mm 1 mps 747 mmHg 46%
    10:00 +22°C° 0 mm 1 mps 747 mmHg 41%
    11:00 +24°C° 0 mm 1 mps 747 mmHg 36%
    12:00 +24°C° 0 mm 1 mps 747 mmHg 34%
    13:00 +24°C° 0 mm 1 mps 747 mmHg 32%
    14:00 +25°C° 0 mm 1 mps 746 mmHg 31%
    15:00 +23°C° 0 mm 1 mps 746 mmHg 36%
    16:00 +22°C° 0 mm 1 mps 746 mmHg 40%
    17:00 +20°C° 0 mm 1 mps 746 mmHg 45%
    18:00 +19°C° 0 mm 1 mps 746 mmHg 48%
    19:00 +18°C° 0 mm 1 mps 745 mmHg 50%
    20:00 +16°C° 0 mm 1 mps 745 mmHg 52%
    21:00 +15°C° 0.1 mm 1 mps 745 mmHg 55%
    22:00 +14°C° 0.1 mm 1 mps 745 mmHg 59%
    23:00 +13°C° 0.1 mm 1 mps 745 mmHg 62%

    Tomorrow, 26 April, Friday

    Time Temperature Precipitation Wind Pressure Humidity
    00:00 +13°C° 0 mm 1 mps 745 mmHg 63%
    01:00 +12°C° 0 mm 1 mps 745 mmHg 64%
    02:00 +12°C° 0 mm 1 mps 745 mmHg 65%
    03:00 +12°C° 0.1 mm 1 mps 745 mmHg 67%
    04:00 +12°C° 0.1 mm 1 mps 745 mmHg 69%
    05:00 +11°C° 0.1 mm 0 mps 745 mmHg 71%
    06:00 +13°C° 0 mm 1 mps 745 mmHg 67%
    07:00 +15°C° 0 mm 1 mps 745 mmHg 63%
    08:00 +16°C° 0 mm 1 mps 745 mmHg 59%
    09:00 +19°C° 0 mm 1 mps 745 mmHg 54%
    10:00 +19°C° 0 mm 2 mps 745 mmHg 49%
    11:00 +21°C° 0 mm 2 mps 745 mmHg 43%
    12:00 +21°C° 0 mm 2 mps 744 mmHg 42%
    13:00 +21°C° 0 mm 2 mps 744 mmHg 40%
    14:00 +21°C° 0 mm 2 mps 744 mmHg 38%
    15:00 +22°C° 0 mm 1 mps 743 mmHg 40%
    16:00 +22°C° 0 mm 1 mps 743 mmHg 42%
    17:00 +21°C° 0 mm 1 mps 743 mmHg 44%
    18:00 +20°C° 0 mm 1 mps 742 mmHg 47%
    19:00 +19°C° 0 mm 1 mps 742 mmHg 49%
    20:00 +16°C° 0 mm 2 mps 742 mmHg 52%
    21:00 +15°C° 0 mm 2 mps 742 mmHg 55%
    22:00 +14°C° 0 mm 2 mps 741 mmHg 57%
    23:00 +14°C° 0 mm 2 mps 741 mmHg 60%

    Day after tomorrow, 27 April, Saturday

    Time Temperature Precipitation Wind Pressure Humidity
    00:00 +13°C° 0 mm 2 mps 741 mmHg 62%
    01:00 +12°C° 0 mm 2 mps 740 mmHg 64%
    02:00 +12°C° 0 mm 2 mps 740 mmHg 65%
    03:00 +10°C° 0 mm 2 mps 740 mmHg 68%
    04:00 +10°C° 0 mm 2 mps 739 mmHg 70%
    05:00 +10°C° 0 mm 2 mps 739 mmHg 72%
    06:00 +13°C° 0 mm 2 mps 739 mmHg 67%
    07:00 +15°C° 0 mm 2 mps 738 mmHg 62%
    08:00 +17°C° 0 mm 3 mps 738 mmHg 56%
    09:00 +18°C° 0 mm 3 mps 738 mmHg 50%
    10:00 +20°C° 0 mm 4 mps 737 mmHg 43%
    11:00 +21°C° 0 mm 4 mps 737 mmHg 36%
    12:00 +22°C° 0 mm 4 mps 737 mmHg 35%
    13:00 +22°C° 0 mm 4 mps 736 mmHg 34%
    14:00 +23°C° 0 mm 4 mps 736 mmHg 33%
    15:00 +22°C° 0 mm 3 mps 735 mmHg 37%
    16:00 +21°C° 0 mm 2 mps 735 mmHg 41%
    17:00 +22°C° 0 mm 1 mps 735 mmHg 45%
    18:00 +19°C° 0.3 mm 2 mps 735 mmHg 58%
    19:00 +16°C° 0.3 mm 3 mps 735 mmHg 70%
    20:00 +13°C° 0.3 mm 3 mps 735 mmHg 82%
    21:00 +13°C° 0.9 mm 3 mps 735 mmHg 86%
    22:00 +12°C° 0.9 mm 3 mps 735 mmHg 89%
    23:00 +11°C° 0.9 mm 3 mps 735 mmHg 92%

    28 April, Sunday

    Time Temperature Precipitation Wind Pressure Humidity
    00:00 +10°C° 0.3 mm 4 mps 736 mmHg 90%
    01:00 +10°C° 0.3 mm 4 mps 736 mmHg 88%
    02:00 +8°C° 0.3 mm 5 mps 736 mmHg 87%
    03:00 +7°C° 0 mm 5 mps 737 mmHg 86%
    04:00 +5°C° 0 mm 5 mps 738 mmHg 85%
    05:00 +3°C° 0 mm 5 mps 738 mmHg 84%
    06:00 +3°C° 0 mm 5 mps 739 mmHg 79%
    07:00 +3°C° 0 mm 5 mps 740 mmHg 73%
    08:00 +3°C° 0 mm 5 mps 741 mmHg 68%
    09:00 +3°C° 0 mm 5 mps 741 mmHg 60%
    10:00 +5°C° 0 mm 5 mps 742 mmHg 53%
    11:00 +6°C° 0 mm 5 mps 742 mmHg 45%
    12:00 +7°C° 0 mm 5 mps 742 mmHg 43%
    13:00 +7°C° 0 mm 5 mps 743 mmHg 41%
    14:00 +8°C° 0 mm 5 mps 743 mmHg 39%
    15:00 +7°C° 0 mm 5 mps 743 mmHg 39%
    16:00 +7°C° 0 mm 4 mps 743 mmHg 39%
    17:00 +6°C° 0 mm 4 mps 744 mmHg 39%
    18:00 +5°C° 0 mm 4 mps 744 mmHg 43%
    19:00 +3°C° 0 mm 3 mps 745 mmHg 48%
    20:00 +3°C° 0 mm 2 mps 745 mmHg 52%
    21:00 +2°C° 0 mm 2 mps 746 mmHg 55%
    22:00 +1°C° 0 mm 2 mps 746 mmHg 58%
    23:00 +1°C° 0 mm 2 mps 747 mmHg 61%

    29 April, Monday

    Time Temperature Precipitation Wind Pressure Humidity
    00:00 -1°C° 0 mm 2 mps 747 mmHg 62%
    01:00 -1°C° 0 mm 2 mps 747 mmHg 64%
    02:00 -2°C° 0 mm 2 mps 747 mmHg 65%
    03:00 -2°C° 0 mm 2 mps 748 mmHg 65%
    04:00 -2°C° 0 mm 2 mps 748 mmHg 65%
    05:00 -2°C° 0 mm 2 mps 748 mmHg 66%
    06:00 -1°C° 0 mm 2 mps 748 mmHg 58%
    07:00 +1°C° 0 mm 3 mps 748 mmHg 50%
    08:00 +3°C° 0 mm 3 mps 749 mmHg 43%
    09:00 +4°C° 0 mm 3 mps 749 mmHg 40%
    10:00 +5°C° 0 mm 3 mps 749 mmHg 38%
    11:00 +7°C° 0 mm 3 mps 749 mmHg 35%
    12:00 +7°C° 0 mm 3 mps 748 mmHg 34%
    13:00 +8°C° 0 mm 2 mps 748 mmHg 34%
    14:00 +8°C° 0 mm 2 mps 748 mmHg 33%
    15:00 +8°C° 0 mm 2 mps 747 mmHg 34%
    16:00 +8°C° 0 mm 2 mps 747 mmHg 35%
    17:00 +8°C° 0 mm 2 mps 747 mmHg 36%
    18:00 +6°C° 0 mm 2 mps 747 mmHg 43%
    19:00 +5°C° 0 mm 1 mps 747 mmHg 49%
    20:00 +3°C° 0 mm 1 mps 747 mmHg 56%
    21:00 +3°C° 0 mm 1 mps 747 mmHg 58%
    22:00 +2°C° 0 mm 1 mps 748 mmHg 61%
    23:00 +1°C° 0 mm 1 mps 748 mmHg 63%

    30 April, Tuesday

    Time Temperature Precipitation Wind Pressure Humidity
    00:00 +1°C° 0 mm 1 mps 748 mmHg 63%
    01:00 -1°C° 0 mm 0 mps 748 mmHg 64%
    02:00 -1°C° 0 mm 0 mps 748 mmHg 64%
    03:00 -1°C° 0 mm 0 mps 748 mmHg 63%
    04:00 0°C° 0 mm 0 mps 748 mmHg 61%
    05:00 0°C° 0 mm 0 mps 748 mmHg 60%
    06:00 +2°C° 0 mm 0 mps 748 mmHg 53%
    07:00 +5°C° 0 mm 0 mps 748 mmHg 46%
    08:00 +8°C° 0 mm 1 mps 748 mmHg 39%
    09:00 +9°C° 0 mm 1 mps 748 mmHg 36%
    10:00 +11°C° 0 mm 1 mps 748 mmHg 33%
    11:00 +12°C° 0 mm 1 mps 748 mmHg 31%
    12:00 +12°C° 0 mm 1 mps 747 mmHg 30%
    13:00 +13°C° 0 mm 1 mps 747 mmHg 29%
    14:00 +13°C° 0 mm 1 mps 746 mmHg 29%
    15:00 +13°C° 0 mm 1 mps 746 mmHg 30%
    16:00 +12°C° 0 mm 1 mps 746 mmHg 31%
    17:00 +11°C° 0 mm 1 mps 745 mmHg 32%
    18:00 +9°C° 0 mm 1 mps 745 mmHg 38%
    19:00 +8°C° 0 mm 1 mps 745 mmHg 44%
    20:00 +5°C° 0 mm 0 mps 745 mmHg 51%
    21:00 +4°C° 0 mm 0 mps 745 mmHg 52%
    22:00 +3°C° 0 mm 0 mps 744 mmHg 54%
    23:00 +3°C° 0 mm 0 mps 744 mmHg 56%
    Show more